Visibility
15.0 15.0 15.0 15.0 15.0 15.0 15.0 15.0 15.0 15.0 15.0 15.0 15.0 15.0 15.0 15.0 15.0 0.9 0.3 15.0 15.0 15.0 15.0 15.0 15.0 15.0 15.0 15.0 15.0 15.0 15.0 15.0 15.0 15.0 15.0 15.0 15.0 15.0 15.0 15.0 15.0 15.0 15.0
15.0 15.0 15.0 15.0 15.0 15.0 15.0 15.0 15.0 15.0 15.0 15.0 15.0 15.0 15.0 1.8 0.5 0.1 0.5 15.0 15.0 14.8 2.7 15.0 15.0 15.0 15.0 15.0 15.0 15.0 15.0 15.0 15.0 15.0 15.0 15.0 15.0 15.0 15.0 15.0 15.0 15.0 15.0
15.0 15.0 15.0 15.0 15.0 15.0 15.0 15.0 15.0 15.0 15.0 15.0 14.3 8.9 3.3 0.4 2.0 0.0 0.0 3.4 15.0 12.8 11.8 0.1 4.0 15.0 15.0 15.0 15.0 15.0 15.0 15.0 15.0 15.0 15.0 15.0 15.0 15.0 15.0 15.0 15.0 15.0 15.0
15.0 15.0 15.0 15.0 15.0 15.0 15.0 15.0 15.0 15.0 15.0 15.0 15.0 13.0 5.5 0.4 0.1 0.0 0.0 0.0 15.0 15.0 0.0 0.0 7.7 15.0 9.2 15.0 15.0 15.0 15.0 15.0 15.0 15.0 15.0 15.0 15.0 15.0 15.0 15.0 15.0 15.0 15.0
15.0 15.0 15.0 15.0 15.0 15.0 7.6 0.0 15.0 9.9 15.0 15.0 13.4 7.6 0.0 0.0 0.0 0.0 0.0 0.0 2.5 0.0 0.0 0.1 15.0 15.0 14.1 15.0 15.0 15.0 15.0 15.0 15.0 15.0 15.0 15.0 15.0 15.0 15.0 15.0 15.0 15.0 14.8
15.0 15.0 15.0 15.0 15.0 0.2 0.1 14.1 14.9 7.6 15.0 15.0 15.0 0.2 0.0 0.0 0.0 0.0 0.0 0.0 1.3 13.0 0.0 0.0 0.1 14.8 15.0 15.0 15.0 15.0 15.0 15.0 15.0 15.0 15.0 15.0 15.0 15.0 15.0 15.0 15.0 15.0 15.0
15.0 15.0 15.0 15.0 15.0 15.0 0.0 0.2 0.1 0.1 0.1 0.8 7.3 1.2 0.1 0.0 0.0 0.0 0.0 0.0 4.4 13.5 0.0 0.0 0.0 0.1 9.9 15.0 15.0 15.0 15.0 15.0 15.0 15.0 15.0 15.0 15.0 15.0 15.0 15.0 15.0 15.0 4.4
15.0 15.0 15.0 15.0 0.3 15.0 0.0 0.0 0.0 0.1 0.1 0.0 0.4 0.8 0.0 0.0 0.0 0.0 0.0 0.0 4.7 0.4 0.0 0.0 0.0 0.0 0.2 15.0 15.0 15.0 15.0 15.0 15.0 15.0 15.0 15.0 15.0 15.0 15.0 15.0 12.8 0.2 4.3
15.0 15.0 15.0 15.0 0.2 5.5 0.0 0.0 0.0 0.0 0.0 0.0 0.0 0.0 0.0 0.0 0.0 0.0 0.0 0.0 0.0 0.5 0.0 3.1 0.7 4.3 6.3 15.0 15.0 15.0 15.0 15.0 15.0 15.0 15.0 15.0 15.0 15.0 10.3 13.9 0.2 0.4 0.1
0.1 0.2 15.0 15.0 13.3 0.0 0.0 0.0 0.0 0.0 0.0 0.0 0.1 0.0 0.0 0.0 0.0 0.0 0.0 0.3 0.1 0.0 0.0 0.0 0.5 15.0 15.0 15.0 15.0 15.0 15.0 15.0 15.0 15.0 15.0 15.0 15.0 2.5 0.0 6.5 15.0 15.0 1.6
0.0 5.1 15.0 15.0 15.0 0.1 0.0 0.0 0.0 0.1 0.1 0.1 0.1 0.2 0.0 0.0 0.0 0.0 0.1 15.0 11.4 0.3 0.0 0.1 0.0 13.7 15.0 15.0 15.0 15.0 15.0 15.0 15.0 15.0 15.0 15.0 13.7 0.1 0.1 0.2 15.0 15.0 14.1
0.0 5.0 15.0 15.0 15.0 15.0 1.0 0.2 0.4 15.0 7.1 15.0 0.4 2.0 1.8 0.0 0.0 0.0 4.6 15.0 15.0 11.5 0.6 0.0 0.4 11.5 15.0 15.0 15.0 15.0 15.0 15.0 9.8 0.1 10.5 0.0 0.0 0.0 0.0 0.1 0.1 0.1 1.2
0.0 0.0 15.0 15.0 15.0 15.0 0.9 1.8 1.8 15.0 12.6 15.0 7.0 3.5 0.1 0.0 0.0 0.1 14.8 13.1 0.1 1.9 15.0 0.0 9.3 15.0 15.0 15.0 15.0 15.0 15.0 10.6 0.0 0.0 0.0 0.0 0.0 0.0 0.1 0.1 0.1 0.1 0.1
0.0 0.0 15.0 15.0 15.0 15.0 15.0 0.1 0.0 0.0 0.1 2.7 7.1 2.5 0.4 0.2 1.0 0.3 0.0 0.0 5.6 12.6 0.1 0.1 7.4 0.3 0.3 0.1 0.2 0.1 12.0 0.1 0.0 0.0 0.1 0.0 0.1 0.1 0.0 0.2 0.1 0.1 0.0
0.0 0.0 0.1 15.0 15.0 15.0 15.0 0.0 0.0 0.0 0.1 11.9 11.1 15.0 4.6 0.1 0.1 4.1 6.2 0.1 0.0 0.0 0.0 0.0 0.0 0.0 0.2 0.1 0.1 15.0 0.1 0.4 0.0 0.1 0.0 0.1 0.0 0.1 0.1 0.1 0.2 0.2 0.0
0.0 0.0 0.0 2.4 15.0 15.0 9.5 0.0 3.9 1.3 0.1 0.1 15.0 0.7 0.1 0.0 0.1 11.3 5.6 15.0 15.0 15.0 15.0 0.1 0.7 0.1 4.1 15.0 15.0 15.0 0.6 9.6 7.1 1.6 0.1 0.1 0.0 0.1 0.1 0.2 2.0 0.2 0.0
0.1 0.0 0.1 0.2 15.0 15.0 5.5 0.0 0.3 1.7 6.7 0.1 0.1 0.9 0.0 0.0 0.0 0.0 0.1 14.6 15.0 15.0 15.0 15.0 15.0 0.1 0.1 15.0 15.0 15.0 15.0 14.8 14.5 0.1 0.1 0.1 0.1 0.1 0.1 0.1 0.1 0.2 0.1
7.5 5.4 0.1 0.0 0.1 15.0 15.0 8.7 0.3 0.1 0.1 0.0 3.2 0.9 2.1 15.0 15.0 15.0 15.0 15.0 15.0 15.0 15.0 0.1 0.0 0.1 0.2 15.0 15.0 15.0 12.0 0.1 0.1 0.1 0.1 0.1 0.1 0.1 0.1 0.1 0.1 0.1 0.1
15.0 12.9 11.9 11.2 15.0 15.0 15.0 15.0 15.0 0.4 0.1 0.1 2.1 4.4 15.0 15.0 15.0 15.0 15.0 15.0 15.0 15.0 14.6 0.1 0.1 0.2 15.0 15.0 11.1 6.1 0.1 0.0 0.1 0.1 0.1 0.1 0.1 0.4 0.1 0.2 0.2 0.2 2.5
15.0 15.0 9.9 11.0 15.0 15.0 15.0 15.0 4.1 0.4 0.2 0.1 0.1 0.1 0.3 3.5 0.1 0.1 0.1 0.1 0.1 0.1 0.1 0.1 0.1 9.5 15.0 15.0 0.1 0.1 0.1 0.0 0.0 0.0 0.0 0.0 0.1 11.7 0.1 0.2 0.3 0.1 1.6
15.0 15.0 15.0 15.0 6.6 12.3 8.5 0.5 0.9 0.2 0.1 0.1 0.1 0.2 0.4 0.1 0.0 0.0 0.1 0.1 0.1 0.1 0.1 0.1 0.1 0.1 0.1 0.1 0.1 0.1 0.1 0.0 0.1 0.1 0.1 0.1 0.0 0.1 5.2 4.2 0.3 0.2 0.2
15.0 15.0 15.0 15.0 15.0 15.0 0.8 6.2 15.0 3.1 0.2 0.1 0.2 0.6 1.8 0.1 0.1 0.1 0.1 0.0 0.1 0.1 0.1 0.1 0.1 0.1 0.2 0.2 0.1 0.1 0.1 0.0 0.0 0.1 0.1 0.1 0.1 0.2 0.6 0.3 0.3 0.2 0.3
15.0 15.0 15.0 15.0 15.0 15.0 15.0 13.8 1.8 1.6 0.4 0.2 0.2 0.1 0.1 0.1 0.1 0.1 0.1 0.1 0.1 0.1 0.1 0.1 0.1 0.1 0.1 0.1 0.1 0.3 0.1 0.1 0.1 0.1 0.1 0.1 0.2 0.2 0.3 0.2 0.1 0.1 0.3
15.0 15.0 15.0 15.0 15.0 15.0 15.0 15.0 15.0 12.7 9.4 13.6 5.7 1.1 0.2 0.2 0.1 0.1 0.1 0.1 0.1 0.1 0.2 0.2 0.2 0.2 0.1 0.1 0.1 0.2 1.0 0.6 3.0 4.7 0.8 0.3 0.2 0.3 0.4 0.3 0.7 1.5 0.7
15.0 10.2 0.1 0.1 0.1 0.3 1.2 0.2 13.4 14.3 15.0 15.0 15.0 15.0 15.0 15.0 15.0 15.0 15.0 15.0 15.0 15.0 14.4 10.2 3.8 0.6 0.3 0.4 1.4 0.6 0.3 0.2 0.7 0.8 2.4 6.0 2.0 3.4 3.2 2.9 15.0 14.4 15.0
14.8 1.4 0.1 0.0 0.1 0.1 0.7 14.8 4.2 3.2 0.1 9.6 15.0 15.0 15.0 14.9 13.1 15.0 15.0 15.0 15.0 15.0 12.3 12.1 4.0 14.9 5.2 4.1 1.0 0.2 0.4 0.4 0.4 0.6 3.4 6.4 1.1 0.4 9.6 4.1 15.0 15.0 12.8